Total_Precipitation_Accumulation
0.00 0.00 0.02 0.11 0.47 0.79 0.74 0.47 0.39 0.31 0.31 0.26 0.28 0.28 0.32 0.45 0.64 0.83 0.35 0.09 0.02 0.01 0.02 0.08 0.13 0.13 0.11 0.10 0.11 0.14 0.15 0.15 0.14 0.14 0.14 0.13 0.10 0.07 0.06 0.05 0.05 0.05 0.05 0.04 0.04 0.05 0.04 0.06 0.07
0.00 0.00 0.03 0.16 0.46 0.68 0.55 0.41 0.33 0.24 0.26 0.31 0.44 0.43 0.34 0.41 0.41 0.34 0.21 0.12 0.04 0.02 0.02 0.03 0.09 0.12 0.11 0.11 0.12 0.13 0.13 0.12 0.11 0.11 0.11 0.10 0.08 0.06 0.05 0.06 0.06 0.07 0.06 0.06 0.06 0.05 0.06 0.07 0.07
0.00 0.01 0.05 0.16 0.27 0.31 0.28 0.18 0.18 0.24 0.33 0.43 0.48 0.48 0.45 0.44 0.34 0.27 0.19 0.12 0.10 0.06 0.04 0.04 0.07 0.09 0.11 0.13 0.13 0.12 0.12 0.11 0.10 0.09 0.10 0.08 0.07 0.06 0.06 0.06 0.07 0.09 0.10 0.11 0.08 0.07 0.08 0.08 0.08
0.01 0.03 0.11 0.14 0.08 0.06 0.07 0.10 0.17 0.29 0.49 0.73 0.72 0.58 0.45 0.34 0.25 0.20 0.24 0.17 0.14 0.10 0.06 0.06 0.09 0.09 0.11 0.12 0.12 0.12 0.11 0.11 0.11 0.10 0.10 0.09 0.08 0.08 0.07 0.07 0.08 0.11 0.13 0.13 0.12 0.11 0.10 0.08 0.08
0.01 0.03 0.11 0.10 0.04 0.03 0.05 0.11 0.22 0.36 0.53 0.72 0.76 0.68 0.59 0.41 0.29 0.25 0.21 0.17 0.18 0.13 0.07 0.07 0.13 0.13 0.13 0.13 0.15 0.14 0.12 0.11 0.11 0.11 0.11 0.11 0.10 0.10 0.10 0.09 0.10 0.11 0.13 0.13 0.13 0.14 0.12 0.10 0.09
0.00 0.02 0.04 0.04 0.02 0.03 0.06 0.13 0.24 0.35 0.52 0.67 0.92 0.94 0.73 0.51 0.48 0.40 0.26 0.19 0.20 0.17 0.10 0.11 0.17 0.19 0.18 0.18 0.19 0.18 0.15 0.14 0.14 0.13 0.14 0.14 0.12 0.13 0.14 0.14 0.15 0.15 0.15 0.15 0.15 0.16 0.16 0.14 0.13
0.00 0.01 0.01 0.01 0.02 0.04 0.06 0.13 0.23 0.37 0.52 0.78 1.05 1.08 0.76 0.56 0.53 0.49 0.41 0.33 0.31 0.25 0.18 0.15 0.17 0.18 0.19 0.23 0.25 0.23 0.20 0.18 0.17 0.17 0.17 0.16 0.14 0.16 0.17 0.20 0.22 0.21 0.21 0.19 0.20 0.20 0.21 0.21 0.19
0.00 0.00 0.01 0.01 0.01 0.05 0.10 0.15 0.27 0.46 0.64 0.86 1.02 1.11 1.02 0.63 0.51 0.57 0.63 0.60 0.62 0.47 0.34 0.26 0.24 0.28 0.24 0.23 0.25 0.26 0.23 0.22 0.21 0.20 0.20 0.21 0.25 0.30 0.35 0.35 0.33 0.33 0.33 0.34 0.36 0.36 0.38 0.38 0.34
0.00 0.01 0.01 0.00 0.02 0.09 0.13 0.17 0.24 0.33 0.52 0.73 0.88 0.93 0.79 0.60 0.61 0.76 0.90 0.78 0.75 0.73 0.56 0.48 0.42 0.33 0.35 0.34 0.31 0.39 0.38 0.39 0.41 0.46 0.43 0.42 0.48 0.62 0.73 0.64 0.63 0.64 0.65 0.69 0.75 0.76 0.78 0.73 0.59
0.00 0.00 0.00 0.00 0.00 0.05 0.11 0.16 0.24 0.31 0.68 1.24 1.26 0.90 0.66 0.75 0.88 0.95 1.00 0.93 0.86 0.83 0.67 0.67 0.63 0.50 0.48 0.49 0.67 0.86 0.80 0.87 0.83 0.96 0.87 0.91 0.95 0.83 0.67 0.76 0.89 1.01 1.20 1.28 1.35 1.40 1.37 1.23 1.02
0.00 0.00 0.00 0.00 0.01 0.01 0.04 0.10 0.18 0.36 0.80 1.44 1.63 1.21 1.00 1.05 1.28 1.18 1.13 1.13 1.14 1.02 0.92 0.70 0.76 0.67 0.70 0.82 0.98 1.14 1.19 1.20 1.17 1.22 1.23 1.35 1.31 1.11 1.00 1.16 1.40 1.55 1.71 1.81 2.04 2.04 1.68 1.65 1.69
0.00 0.00 0.00 0.00 0.01 0.01 0.08 0.15 0.23 0.29 0.71 1.06 1.03 0.93 1.07 1.21 1.36 1.44 1.38 1.47 1.36 1.25 1.25 1.10 1.13 1.05 1.03 1.05 1.08 1.10 1.04 1.06 1.16 1.26 1.35 1.50 1.50 1.52 1.49 1.55 1.63 1.77 1.98 2.23 2.31 2.30 2.14 2.27 2.22
0.00 0.00 0.00 0.01 0.03 0.04 0.09 0.13 0.23 0.35 0.49 0.61 0.58 0.77 1.18 1.40 1.59 1.78 1.86 1.96 1.91 1.87 1.81 1.71 1.69 1.48 1.26 1.12 1.03 0.93 0.89 0.85 0.94 1.05 1.11 1.21 1.45 1.60 1.60 1.44 1.44 1.47 1.70 2.04 2.35 2.38 2.59 2.67 2.45
0.00 0.00 0.01 0.03 0.03 0.05 0.07 0.10 0.24 0.40 0.44 0.57 0.72 0.95 1.31 1.67 1.92 2.11 2.58 2.84 2.95 2.82 2.54 2.36 2.25 1.78 1.52 1.32 1.13 1.01 0.84 0.85 0.87 0.84 0.92 1.09 1.24 1.40 1.37 1.35 1.41 1.45 1.46 1.61 1.99 2.24 2.46 2.39 2.15
0.00 0.02 0.05 0.06 0.04 0.05 0.06 0.17 0.38 0.50 0.68 0.71 0.90 1.13 1.44 1.91 2.30 2.71 3.08 3.63 3.91 3.81 3.24 2.74 2.47 2.12 1.82 1.64 1.35 1.10 0.94 0.84 0.85 0.79 0.82 0.89 0.98 1.11 1.13 1.14 1.13 1.19 1.20 1.22 1.36 1.59 1.77 1.72 1.63
0.01 0.08 0.17 0.10 0.06 0.07 0.10 0.42 0.63 0.54 0.82 1.15 1.09 1.38 1.75 2.16 2.52 3.10 3.66 4.29 4.76 4.75 4.02 3.25 2.63 2.53 2.33 2.04 1.52 1.11 0.91 0.77 0.68 0.63 0.60 0.62 0.65 0.68 0.70 0.71 0.69 0.72 0.69 0.73 0.86 0.97 1.09 1.20 1.32
0.03 0.07 0.15 0.17 0.11 0.10 0.18 0.58 0.75 0.53 0.66 0.97 1.20 1.45 1.86 2.14 2.36 2.86 3.40 4.14 4.67 5.07 4.72 3.84 3.53 3.29 2.59 1.86 1.28 0.95 0.75 0.60 0.51 0.53 0.47 0.45 0.45 0.45 0.50 0.50 0.50 0.45 0.42 0.44 0.46 0.58 0.70 0.81 0.91
0.02 0.04 0.09 0.21 0.16 0.17 0.25 0.44 0.70 0.72 0.87 1.09 1.24 1.38 1.65 1.77 1.90 2.33 2.81 3.21 3.69 4.11 3.91 3.52 3.34 2.79 2.02 1.39 1.02 0.74 0.56 0.42 0.35 0.36 0.36 0.33 0.35 0.36 0.41 0.39 0.37 0.33 0.32 0.36 0.41 0.48 0.49 0.51 0.55
0.02 0.04 0.08 0.15 0.16 0.23 0.35 0.47 0.65 0.81 1.02 1.18 1.20 1.18 1.22 1.33 1.56 1.79 2.09 2.42 2.51 2.56 2.51 2.51 2.39 1.98 1.42 1.02 0.69 0.52 0.43 0.33 0.25 0.22 0.22 0.23 0.26 0.31 0.39 0.32 0.35 0.33 0.29 0.29 0.31 0.35 0.36 0.33 0.32
0.03 0.06 0.11 0.14 0.14 0.19 0.34 0.60 0.74 0.81 0.84 0.91 0.99 0.97 0.95 1.03 1.12 1.22 1.38 1.65 1.63 1.68 1.75 1.76 1.74 1.42 0.99 0.75 0.56 0.48 0.41 0.28 0.21 0.17 0.16 0.13 0.14 0.19 0.26 0.34 0.28 0.28 0.29 0.28 0.27 0.30 0.29 0.26 0.27
0.04 0.05 0.06 0.10 0.11 0.19 0.35 0.83 0.91 0.79 0.70 0.61 0.71 0.76 0.71 0.72 0.72 0.73 0.81 0.97 1.21 1.51 1.46 1.31 1.27 1.14 0.87 0.70 0.53 0.45 0.38 0.30 0.22 0.20 0.16 0.13 0.11 0.13 0.17 0.24 0.26 0.29 0.26 0.30 0.35 0.32 0.30 0.24 0.21
0.04 0.03 0.02 0.02 0.07 0.30 0.42 0.85 0.92 0.78 0.76 0.57 0.53 0.53 0.43 0.35 0.39 0.49 0.54 0.64 0.82 1.02 1.09 1.09 1.07 1.05 0.81 0.63 0.45 0.34 0.26 0.23 0.18 0.18 0.16 0.13 0.12 0.11 0.10 0.11 0.16 0.24 0.27 0.35 0.27 0.30 0.32 0.28 0.22
0.01 0.01 0.01 0.03 0.10 0.27 0.39 0.72 0.91 0.71 0.78 0.53 0.34 0.23 0.15 0.14 0.17 0.30 0.37 0.46 0.53 0.59 0.73 0.86 1.04 1.14 0.87 0.65 0.49 0.39 0.31 0.25 0.19 0.17 0.18 0.15 0.15 0.15 0.14 0.12 0.12 0.13 0.19 0.27 0.30 0.36 0.33 0.34 0.30
0.01 0.02 0.08 0.17 0.29 0.61 0.60 0.58 0.85 0.60 0.40 0.23 0.15 0.09 0.07 0.07 0.10 0.19 0.24 0.32 0.41 0.47 0.52 0.61 0.80 0.97 0.86 0.68 0.52 0.47 0.45 0.37 0.28 0.22 0.20 0.21 0.23 0.24 0.22 0.20 0.21 0.21 0.19 0.18 0.20 0.24 0.31 0.36 0.37
0.02 0.03 0.16 0.37 0.63 0.82 0.48 0.59 0.91 0.44 0.23 0.11 0.07 0.05 0.04 0.04 0.06 0.09 0.14 0.18 0.29 0.35 0.35 0.38 0.53 0.65 0.64 0.55 0.50 0.49 0.57 0.55 0.48 0.38 0.32 0.29 0.27 0.28 0.27 0.24 0.26 0.28 0.28 0.25 0.20 0.17 0.21 0.29 0.34
0.02 0.02 0.06 0.12 0.24 0.39 0.44 1.01 0.82 0.23 0.12 0.07 0.04 0.03 0.04 0.03 0.03 0.04 0.07 0.12 0.18 0.23 0.26 0.30 0.39 0.46 0.48 0.42 0.42 0.42 0.42 0.40 0.45 0.48 0.41 0.38 0.37 0.32 0.27 0.24 0.24 0.27 0.30 0.32 0.29 0.23 0.22 0.24 0.28
0.02 0.02 0.03 0.04 0.06 0.23 0.53 0.71 0.39 0.10 0.06 0.05 0.03 0.03 0.02 0.02 0.01 0.01 0.03 0.07 0.10 0.14 0.18 0.20 0.28 0.34 0.35 0.35 0.34 0.31 0.30 0.28 0.31 0.29 0.25 0.26 0.36 0.37 0.31 0.25 0.23 0.25 0.27 0.31 0.33 0.32 0.31 0.29 0.26
0.03 0.02 0.02 0.02 0.05 0.16 0.38 0.60 0.55 0.22 0.11 0.07 0.04 0.02 0.02 0.01 0.01 0.01 0.02 0.04 0.08 0.10 0.15 0.18 0.23 0.26 0.27 0.30 0.30 0.26 0.30 0.29 0.32 0.26 0.20 0.18 0.21 0.24 0.27 0.24 0.21 0.21 0.23 0.29 0.33 0.37 0.43 0.44 0.40
0.04 0.03 0.03 0.03 0.04 0.08 0.24 0.37 0.37 0.24 0.17 0.11 0.05 0.03 0.05 0.04 0.02 0.02 0.03 0.03 0.04 0.08 0.11 0.14 0.20 0.23 0.22 0.27 0.29 0.32 0.31 0.28 0.28 0.27 0.22 0.19 0.18 0.18 0.18 0.20 0.20 0.19 0.19 0.23 0.28 0.31 0.43 0.56 0.64
0.05 0.06 0.06 0.05 0.05 0.06 0.10 0.16 0.15 0.15 0.16 0.13 0.08 0.04 0.05 0.05 0.03 0.04 0.04 0.03 0.03 0.07 0.11 0.13 0.17 0.19 0.19 0.25 0.32 0.31 0.34 0.38 0.35 0.29 0.27 0.26 0.25 0.23 0.22 0.22 0.22 0.20 0.17 0.19 0.23 0.27 0.32 0.44 0.61